ECHOSTAR 21

导读 | 豆包AI

ECHOSTAR 21是美国EchoStar Corporation运营的一颗地球静止轨道高通量通信卫星,属于Echostar移动通信卫星系列,于北京时间2017年6月8日发射升空。该卫星采用先进高通量技术,主要面向卫星通信、广播电视与高速数据传输服务,可覆盖指定区域,提供企业通信、互联网接入等服务,助力偏远区域网络覆盖,支撑美国商业通信与信息化服务。

Basic Information
目录编号:
42749
目录名称:
ECHOSTAR 21
国际标识:
2017-032A
轨道中心:
EARTH
卫星名称:
ECHOSTAR 21
卫星全名:
--
卫星状态:
在轨 (已飞行3201 天)
发射日期:
2017-06-08 UTC
国别 :
美国 (US)
星等 :
--
Orbit Information
数据来源 国际轨道数据 AOE轨道数据
星历时间 2026-03-14T05:40:39+0800
8小时前
查看轨道信息
2026-03-14T10:00:00+0800
3小时前
查看轨道信息
半长轴 42164.924km 42164.896km
偏心率 0.0002471 0.0002455
轨道倾角 1.791° 1.790°
近地点辐角 352.760° 353.075°
升交点赤经 349.399° 349.453°
平近点角 164.773° 229.421°
近地点 35776.368km 35776.407km
远地点 35797.206km 35797.111km
周期 1436.107分钟 1436.105分钟
每日圈数 1.002711 1.002712
Detailed Information
使用方式:
暂无
2D Orbit Map
3D Orbit Map
Orbit Altitude Analysis Chart
Orbit Inclination Analysis Chart
Orbit Comprehensive Analysis Chart
View Comprehensive Chart